Location: Cossonay
(46.5833°N, 6.4167°E)
Time: 09:48:11
(UTC+00:00)

STARLINK-1257 - Pass Details

Date: 05 October 2020
Orbit: 549 x 550 km, 53.0° (Epoch: 21 October)

Event Time Altitude Azimuth Distance (km) Brightness Sun altitude
Exits shadow 03:04:36 30° 125° (SE) 1,008 5.2 -26.7°
Drops below altitude 10° 03:07:51 10° 75° (ENE) 1,823 7.3 -26.2°
Sets 03:10:16 0° 65° (ENE) 2,720 8.5 -25.8°
